Location: downtown San Diego
(32.7310°N, 117.1990°W)
Time: 20:06:49
(UTC-08:00)

SPOT 5 - Pass Details

Date: 19 May 2017
Orbit: 624 x 815 km, 98.4° (Epoch: 24 November)

Event Time Altitude Azimuth Distance (km) Brightness Sun altitude
Exits shadow 21:06:02 16° 80° (E) 1,663 4.4 -15.7°
Maximum altitude 21:06:43 16° 68° (ENE) 1,634 4.4 -15.8°
Drops below altitude 10° 21:09:22 10° 30° (NNE) 1,999 5.3 -16.2°
Sets 21:12:15 0° 9° (N) 2,909 6.4 -16.7°
